• In Belarus
  • List of Countries
  • For 7 days
  • Water Temperature
  • Weather Map
  • Weather Widgets
  • user-avatar
    Login

    Hourly Weather Salta

    Today, 13 December, Friday

    Time Temperature Precipitation Wind Pressure Humidity
    00:00 +1°C° 0 mm 1 mps 659 mmHg 50%
    01:00 -1°C° 0 mm 2 mps 659 mmHg 50%
    02:00 -2°C° 0 mm 2 mps 659 mmHg 50%
    03:00 -2°C° 0 mm 2 mps 659 mmHg 51%
    04:00 -2°C° 0 mm 2 mps 658 mmHg 50%
    05:00 -2°C° 0 mm 2 mps 658 mmHg 50%
    06:00 -3°C° 0 mm 2 mps 658 mmHg 50%
    07:00 -2°C° 0 mm 2 mps 658 mmHg 51%
    08:00 -1°C° 0 mm 2 mps 658 mmHg 51%
    09:00 +2°C° 0 mm 1 mps 659 mmHg 52%
    10:00 +3°C° 0 mm 1 mps 659 mmHg 50%
    11:00 +4°C° 0 mm 1 mps 659 mmHg 48%
    12:00 +5°C° 0 mm 1 mps 658 mmHg 47%
    13:00 +5°C° 0 mm 1 mps 658 mmHg 51%
    14:00 +5°C° 0 mm 1 mps 658 mmHg 55%
    15:00 +4°C° 0 mm 1 mps 658 mmHg 59%
    16:00 +4°C° 0 mm 1 mps 658 mmHg 61%
    17:00 +3°C° 0 mm 1 mps 658 mmHg 62%
    18:00 +2°C° 0 mm 2 mps 657 mmHg 63%
    19:00 +2°C° 0 mm 2 mps 658 mmHg 63%
    20:00 +2°C° 0 mm 2 mps 658 mmHg 62%
    21:00 +2°C° 0 mm 2 mps 658 mmHg 61%
    22:00 +2°C° 0 mm 2 mps 658 mmHg 62%
    23:00 +2°C° 0 mm 2 mps 658 mmHg 62%

    Tomorrow, 14 December, Saturday

    Time Temperature Precipitation Wind Pressure Humidity
    00:00 +2°C° 0 mm 2 mps 658 mmHg 62%
    01:00 +2°C° 0 mm 2 mps 658 mmHg 62%
    02:00 +2°C° 0 mm 2 mps 658 mmHg 62%
    03:00 +2°C° 0 mm 2 mps 658 mmHg 62%
    04:00 +2°C° 0 mm 2 mps 658 mmHg 62%
    05:00 +2°C° 0 mm 2 mps 658 mmHg 63%
    06:00 +2°C° 0 mm 2 mps 658 mmHg 63%
    07:00 +3°C° 0 mm 2 mps 659 mmHg 63%
    08:00 +3°C° 0 mm 2 mps 659 mmHg 62%
    09:00 +5°C° 0 mm 1 mps 660 mmHg 61%
    10:00 +6°C° 0 mm 1 mps 660 mmHg 59%
    11:00 +7°C° 0 mm 1 mps 660 mmHg 58%
    12:00 +8°C° 0 mm 1 mps 660 mmHg 56%
    13:00 +8°C° 0 mm 1 mps 660 mmHg 59%
    14:00 +8°C° 0 mm 1 mps 660 mmHg 61%
    15:00 +7°C° 0 mm 1 mps 660 mmHg 64%
    16:00 +6°C° 0 mm 1 mps 660 mmHg 64%
    17:00 +4°C° 0 mm 2 mps 660 mmHg 64%
    18:00 +3°C° 0 mm 2 mps 660 mmHg 64%
    19:00 +3°C° 0 mm 2 mps 660 mmHg 62%
    20:00 +3°C° 0 mm 2 mps 660 mmHg 60%
    21:00 +3°C° 0 mm 2 mps 660 mmHg 58%
    22:00 +3°C° 0 mm 2 mps 660 mmHg 56%
    23:00 +3°C° 0 mm 2 mps 660 mmHg 55%

    Day after tomorrow, 15 December, Sunday

    Time Temperature Precipitation Wind Pressure Humidity
    00:00 +3°C° 0 mm 2 mps 660 mmHg 54%
    01:00 +3°C° 0 mm 2 mps 660 mmHg 53%
    02:00 +3°C° 0 mm 2 mps 660 mmHg 52%
    03:00 +3°C° 0 mm 2 mps 660 mmHg 51%
    04:00 +3°C° 0 mm 2 mps 660 mmHg 51%
    05:00 +3°C° 0 mm 2 mps 660 mmHg 50%
    06:00 +3°C° 0 mm 2 mps 659 mmHg 49%
    07:00 +4°C° 0 mm 2 mps 660 mmHg 48%
    08:00 +5°C° 0 mm 1 mps 660 mmHg 46%
    09:00 +6°C° 0 mm 1 mps 661 mmHg 45%
    10:00 +7°C° 0 mm 1 mps 661 mmHg 45%
    11:00 +8°C° 0 mm 1 mps 661 mmHg 45%
    12:00 +8°C° 0 mm 0 mps 661 mmHg 45%
    13:00 +7°C° 0 mm 0 mps 661 mmHg 49%
    14:00 +6°C° 0 mm 0 mps 661 mmHg 53%
    15:00 +5°C° 0 mm 0 mps 661 mmHg 58%
    16:00 +5°C° 0 mm 0 mps 661 mmHg 60%
    17:00 +4°C° 0 mm 0 mps 661 mmHg 62%
    18:00 +3°C° 0 mm 0 mps 661 mmHg 65%
    19:00 +3°C° 0 mm 0 mps 661 mmHg 64%
    20:00 +3°C° 0 mm 0 mps 662 mmHg 63%
    21:00 +3°C° 0 mm 0 mps 662 mmHg 62%
    22:00 +3°C° 0 mm 0 mps 662 mmHg 62%
    23:00 +3°C° 0 mm 0 mps 662 mmHg 61%

    16 December, Monday

    Time Temperature Precipitation Wind Pressure Humidity
    00:00 +3°C° 0 mm 0 mps 662 mmHg 60%
    01:00 +3°C° 0 mm 0 mps 662 mmHg 60%
    02:00 +4°C° 0 mm 1 mps 663 mmHg 60%
    03:00 +4°C° 0 mm 1 mps 663 mmHg 60%
    04:00 +4°C° 0 mm 1 mps 663 mmHg 60%
    05:00 +3°C° 0 mm 1 mps 663 mmHg 60%
    06:00 +3°C° 0 mm 1 mps 663 mmHg 61%
    07:00 +4°C° 0 mm 1 mps 664 mmHg 60%
    08:00 +4°C° 0 mm 1 mps 664 mmHg 59%
    09:00 +5°C° 0 mm 1 mps 665 mmHg 59%
    10:00 +6°C° 0 mm 1 mps 665 mmHg 57%
    11:00 +6°C° 0 mm 1 mps 665 mmHg 56%
    12:00 +7°C° 0 mm 1 mps 665 mmHg 55%
    13:00 +7°C° 0 mm 1 mps 665 mmHg 60%
    14:00 +5°C° 0 mm 0 mps 665 mmHg 65%
    15:00 +5°C° 0 mm 0 mps 665 mmHg 70%
    16:00 +4°C° 0 mm 0 mps 665 mmHg 73%
    17:00 +3°C° 0 mm 0 mps 665 mmHg 76%
    18:00 +3°C° 0 mm 1 mps 666 mmHg 79%
    19:00 +3°C° 0 mm 1 mps 666 mmHg 79%
    20:00 +3°C° 0 mm 1 mps 666 mmHg 79%
    21:00 +3°C° 0 mm 1 mps 666 mmHg 79%
    22:00 +3°C° 0 mm 1 mps 666 mmHg 79%
    23:00 +3°C° 0 mm 1 mps 666 mmHg 78%

    17 December, Tuesday

    Time Temperature Precipitation Wind Pressure Humidity
    00:00 +3°C° 0 mm 1 mps 666 mmHg 78%
    01:00 +3°C° 0 mm 1 mps 666 mmHg 77%
    02:00 +3°C° 0 mm 1 mps 666 mmHg 77%
    03:00 +3°C° 0 mm 1 mps 666 mmHg 76%
    04:00 +3°C° 0 mm 1 mps 666 mmHg 76%
    05:00 +2°C° 0 mm 1 mps 667 mmHg 76%
    06:00 +2°C° 0 mm 1 mps 667 mmHg 75%
    07:00 +3°C° 0 mm 1 mps 667 mmHg 72%
    08:00 +4°C° 0 mm 1 mps 667 mmHg 69%
    09:00 +4°C° 0 mm 1 mps 668 mmHg 65%
    10:00 +5°C° 0 mm 1 mps 668 mmHg 62%
    11:00 +6°C° 0 mm 1 mps 668 mmHg 58%
    12:00 +7°C° 0 mm 1 mps 668 mmHg 55%
    13:00 +7°C° 0 mm 1 mps 668 mmHg 59%
    14:00 +6°C° 0 mm 1 mps 667 mmHg 63%
    15:00 +5°C° 0 mm 0 mps 667 mmHg 67%
    16:00 +4°C° 0 mm 0 mps 667 mmHg 68%
    17:00 +4°C° 0 mm 1 mps 667 mmHg 69%
    18:00 +4°C° 0 mm 1 mps 667 mmHg 70%
    19:00 +3°C° 0 mm 1 mps 667 mmHg 68%
    20:00 +3°C° 0 mm 1 mps 667 mmHg 65%
    21:00 +3°C° 0 mm 1 mps 667 mmHg 63%
    22:00 +3°C° 0 mm 1 mps 667 mmHg 61%
    23:00 +3°C° 0 mm 1 mps 667 mmHg 59%

    18 December, Wednesday

    Time Temperature Precipitation Wind Pressure Humidity
    00:00 +3°C° 0 mm 1 mps 667 mmHg 57%
    01:00 +3°C° 0 mm 1 mps 667 mmHg 55%
    02:00 +3°C° 0 mm 1 mps 667 mmHg 52%
    03:00 +3°C° 0 mm 1 mps 666 mmHg 50%
    04:00 +3°C° 0 mm 1 mps 666 mmHg 47%
    05:00 +3°C° 0 mm 1 mps 666 mmHg 45%
    06:00 +3°C° 0 mm 1 mps 666 mmHg 43%
    07:00 +4°C° 0 mm 1 mps 667 mmHg 41%
    08:00 +5°C° 0 mm 1 mps 667 mmHg 39%
    09:00 +5°C° 0 mm 1 mps 667 mmHg 37%
    10:00 +6°C° 0 mm 1 mps 667 mmHg 35%
    11:00 +6°C° 0 mm 0 mps 667 mmHg 33%
    12:00 +7°C° 0 mm 0 mps 667 mmHg 31%
    13:00 +7°C° 0 mm 0 mps 667 mmHg 35%
    14:00 +7°C° 0 mm 0 mps 667 mmHg 38%
    15:00 +6°C° 0 mm 0 mps 666 mmHg 41%
    16:00 +5°C° 0 mm 0 mps 666 mmHg 41%
    17:00 +5°C° 0 mm 1 mps 666 mmHg 41%
    18:00 +5°C° 0 mm 1 mps 666 mmHg 41%
    19:00 +5°C° 0 mm 1 mps 666 mmHg 40%
    20:00 +5°C° 0 mm 1 mps 666 mmHg 40%
    21:00 +4°C° 0 mm 1 mps 666 mmHg 39%
    22:00 +4°C° 0 mm 1 mps 666 mmHg 39%
    23:00 +5°C° 0 mm 1 mps 666 mmHg 38%
    Show more